SCP
0 0 0 0 0 0 0 0 0 0 0 0 0 0 0 0 0 0 0 0 0 0 0 0 0 0 0 0 1 1 0 0 0 0 1 0 0 1 1 1 1 1 1
0 0 0 0 0 0 0 0 0 0 0 0 0 0 0 0 0 0 0 0 1 1 0 0 0 0 0 0 0 0 1 1 1 1 1 1 1 0 0 1 1 1 1
0 0 0 0 0 0 0 0 0 0 0 0 0 0 0 0 0 0 0 0 0 1 0 0 0 0 0 0 1 0 1 1 1 1 1 1 1 1 0 0 0 1 1
0 0 0 0 1 0 0 0 0 0 0 0 0 0 0 0 0 0 0 0 0 0 1 1 0 0 0 0 0 0 1 1 1 1 1 1 1 1 1 0 1 1 2
0 0 0 0 0 0 0 0 0 0 0 0 0 0 0 1 0 0 0 0 0 0 0 0 1 1 0 0 1 0 1 1 1 1 1 1 1 1 1 1 1 1 2
0 0 0 0 0 0 0 0 0 0 0 0 0 0 0 1 1 1 0 0 0 -0 0 0 0 0 0 0 0 0 0 1 1 1 1 1 0 0 1 1 1 1 1
0 0 0 0 0 0 0 0 0 0 0 0 0 0 0 0 0 1 1 0 0 0 -0 0 0 0 0 0 0 0 0 0 1 1 1 1 1 0 0 0 1 1 1
0 0 0 0 0 0 0 0 0 0 0 0 0 0 0 0 0 1 0 0 0 0 0 0 0 0 0 0 0 0 0 0 0 1 1 1 1 0 0 1 0 0 1
0 0 0 0 0 0 0 0 0 0 0 0 0 0 0 0 0 0 0 0 0 0 0 0 0 0 0 0 0 0 0 0 0 0 1 1 0 0 0 0 0 0 0
0 0 0 0 0 0 0 0 0 0 0 0 0 0 0 0 0 0 0 0 0 0 0 -0 0 0 0 0 0 0 0 0 0 0 1 1 0 0 0 0 0 0 0
0 0 0 0 0 0 0 0 0 0 0 0 0 0 0 0 0 -0 -0 -0 0 0 -0 0 -0 0 0 0 0 0 0 0 0 0 1 1 0 0 0 0 0 0 0
0 0 0 0 0 0 0 0 0 0 0 0 0 0 0 0 0 0 -0 0 0 0 0 0 0 0 -0 0 0 0 0 0 0 0 0 1 0 0 0 0 0 0 0
0 0 0 0 0 0 0 0 0 0 0 0 0 0 0 0 0 0 -0 0 -0 0 0 0 0 0 0 -0 0 0 0 0 0 0 1 1 0 0 0 0 0 0 0
0 0 0 0 0 0 0 0 0 0 0 0 0 0 0 0 0 0 0 0 0 -0 0 -0 0 0 0 -0 0 0 0 0 0 0 0 0 0 0 0 0 0 0 0
0 0 0 0 0 0 0 0 0 0 0 0 0 0 0 0 -0 -0 -0 0 -0 -0 0 -0 0 0 0 0 0 0 0 0 0 0 0 0 0 0 0 0 0 0 0
0 0 0 0 0 0 0 0 0 0 0 0 0 0 0 0 0 -0 -0 0 -0 -0 -0 0 0 0 0 0 0 0 0 0 0 0 0 0 0 0 0 0 0 0 0
0 0 0 0 0 0 0 0 0 0 0 0 0 0 0 0 0 0 -0 0 -0 0 -0 0 0 0 -0 0 0 0 -0 0 0 0 0 0 0 0 0 0 0 0 0
0 0 0 0 0 0 0 0 0 0 0 0 0 0 0 0 0 0 0 0 0 -0 0 -0 -0 -0 0 -0 0 0 0 0 0 0 0 0 0 0 0 0 0 0 0
0 0 0 0 0 0 0 0 0 0 0 0 0 0 0 0 0 0 -0 -0 0 0 0 -0 0 -0 0 0 0 0 0 0 0 0 0 0 0 0 0 0 0 0 0
0 0 0 0 0 0 0 0 0 0 0 0 -0 0 0 0 0 0 0 0 0 0 0 0 0 0 0 0 0 0 0 0 0 0 0 0 0 0 0 0 0 0 0
0 0 0 0 0 0 0 0 0 0 0 0 0 0 0 0 0 0 0 0 0 0 0 0 0 0 -0 0 0 0 0 0 0 0 0 0 0 0 0 0 0 0 0
0 0 0 0 0 0 0 0 0 0 0 0 0 0 0 0 0 0 0 0 0 0 0 0 0 0 -0 0 0 0 0 0 0 0 0 0 0 0 0 0 0 0 0
0 0 0 0 0 0 0 0 0 0 0 0 0 0 0 0 0 0 0 0 0 0 0 0 0 0 -0 0 0 0 0 0 0 0 0 0 1 0 0 0 0 0 0
0 0 0 0 0 0 0 0 0 0 0 0 0 0 0 0 0 0 0 0 0 0 0 0 0 0 -0 0 0 0 0 0 0 0 0 0 0 0 0 0 0 0 0
0 0 0 0 0 0 0 0 0 0 0 0 0 0 0 0 0 0 0 -0 0 -0 0 0 0 0 0 0 0 0 0 0 0 0 0 0 0 0 0 0 0 0 0
0 0 0 0 0 0 0 0 0 0 0 0 0 0 0 0 0 0 0 -0 -0 -0 0 0 0 0 0 0 0 0 0 0 0 0 0 0 0 0 0 0 0 0 0
Wind_Speed_500mb
14 17 20 20 26 28 34 30 34 43 39 39 44 44 42 41 40 41 41 48 47 48 46 39 38 33 33 36 39 40 39 39 40 39 39 40 40 41 42 44 47 51 52
22 21 25 34 31 36 45 30 44 49 52 51 54 50 51 47 42 43 40 42 51 50 50 46 42 42 44 43 43 43 42 42 42 42 42 43 44 46 47 51 53 53 54
28 35 38 42 44 38 39 42 43 41 43 50 50 51 51 49 53 45 44 43 44 48 42 41 50 50 49 47 44 46 45 39 38 38 40 41 42 42 45 50 56 58 57
37 38 37 35 26 29 34 40 44 41 54 46 51 49 50 55 56 50 54 53 49 43 33 33 38 52 60 53 52 49 48 44 43 39 37 37 37 36 34 40 49 56 60
25 28 24 19 25 29 33 37 38 42 46 50 52 53 51 49 45 50 65 53 46 39 45 46 45 55 62 61 56 52 50 46 45 44 39 36 38 38 34 33 39 48 54
19 20 12 17 22 24 30 34 42 38 46 51 56 57 58 59 58 62 77 62 56 58 28 30 40 50 52 63 64 60 55 50 46 44 46 38 36 39 36 31 33 40 47
6 10 9 15 19 26 31 30 31 43 44 46 52 60 57 59 68 55 59 74 76 83 54 49 44 38 36 38 46 65 67 62 53 48 46 40 36 35 37 34 30 34 41
4 5 11 17 29 24 27 29 37 38 41 42 51 60 61 56 49 39 37 44 49 55 79 81 25 27 32 27 35 37 50 68 62 53 44 43 38 35 38 34 34 34 36
2 7 19 20 23 21 24 31 30 33 42 43 43 39 43 43 54 49 38 35 37 26 41 46 12 22 29 30 34 37 42 49 62 61 53 44 40 36 34 33 35 36 34
7 8 12 16 20 22 22 24 29 32 37 41 42 37 40 44 41 34 27 37 32 33 32 26 19 27 28 32 33 38 35 33 41 58 60 51 44 39 36 34 32 33 32
9 9 15 18 18 16 21 25 28 31 32 36 38 41 40 35 37 34 38 28 31 23 21 28 30 25 25 25 29 29 38 46 53 49 57 54 47 39 31 33 33 30 32
13 13 17 19 18 19 21 23 27 26 31 33 35 35 35 31 35 30 32 37 32 25 18 15 17 24 18 25 28 30 37 36 37 48 57 52 44 34 29 29 32 30 30
11 20 22 22 18 22 21 24 27 24 29 32 31 28 27 24 33 29 29 33 28 34 12 10 13 12 14 23 25 25 31 31 27 37 50 49 40 37 32 27 24 28 31
12 22 18 20 20 23 23 23 21 26 23 29 29 24 20 22 23 28 28 25 31 25 17 18 10 14 12 24 12 19 26 24 28 38 45 42 41 33 29 31 24 22 21
15 18 19 19 19 22 24 26 24 30 25 27 27 25 23 22 23 24 25 24 27 31 24 17 13 15 11 19 24 18 16 22 27 40 45 43 40 36 34 32 29 22 19
16 18 21 21 20 22 24 27 26 26 32 28 24 25 24 24 21 22 27 29 26 26 21 21 20 21 26 18 24 18 14 26 28 42 49 42 43 47 42 37 36 30 28
20 20 21 22 23 23 24 28 33 31 29 36 33 29 29 27 24 25 28 23 27 25 27 25 20 23 31 24 22 21 19 20 22 22 39 43 44 40 49 45 37 36 38
22 23 25 24 25 26 26 28 31 31 32 36 38 36 36 24 28 26 24 29 33 31 31 37 31 30 29 22 25 19 19 19 19 24 26 36 43 44 45 42 39 37 39
24 25 27 27 27 28 29 30 31 30 36 37 38 35 35 31 31 27 29 27 29 32 34 37 34 28 26 26 26 20 19 21 18 27 28 26 31 39 41 42 41 40 40
27 29 29 30 31 31 30 30 27 37 38 37 37 35 35 27 32 29 30 33 34 34 32 29 33 30 23 22 28 20 20 22 23 28 24 22 24 28 34 38 39 40 40
29 31 32 32 33 33 31 32 38 39 40 40 35 32 32 32 29 23 24 24 27 26 25 30 31 26 29 27 27 23 23 24 26 29 28 31 32 35 32 34 35 36 37
29 31 33 34 35 34 38 48 43 47 47 40 31 27 32 34 27 28 24 24 25 28 27 26 32 35 34 30 31 26 24 22 22 26 33 35 31 30 30 30 36 44 41
34 34 33 33 35 37 40 47 46 47 52 39 27 32 35 29 36 31 32 27 28 28 31 32 36 33 34 29 24 20 19 23 22 24 26 33 27 31 31 36 44 42 42
43 44 38 35 36 37 41 46 42 45 45 29 28 37 31 28 25 31 25 28 33 35 40 37 32 30 31 31 29 26 29 25 25 27 23 29 37 37 42 47 46 50 56
49 50 43 41 40 40 40 45 41 39 32 32 31 32 24 25 32 35 36 35 33 32 34 38 29 23 22 23 24 20 19 16 19 18 18 14 24 26 26 25 30 35 36
43 40 42 46 44 44 42 42 37 29 29 29 30 29 33 25 30 34 32 28 25 22 21 22 23 20 17 17 17 25 24 28 26 24 25 21 20 16 10 15 17 21 18
Wind_Direction_500mb
272 280 274 282 288 291 297 295 292 296 295 295 289 289 278 277 278 273 272 284 285 288 284 266 251 240 239 230 225 225 228 231 235 238 238 242 246 250 248 245 243 239 236
247 263 280 287 287 298 288 303 297 292 286 287 287 285 282 277 274 271 270 266 283 278 275 268 255 251 244 243 242 238 237 239 242 245 248 251 252 253 252 248 243 241 239
272 281 288 293 285 295 300 304 302 291 290 286 278 284 274 267 262 267 270 270 270 275 270 271 261 253 248 242 244 247 245 242 242 244 249 254 254 253 253 248 243 238 238
275 286 291 301 294 291 301 306 306 305 304 303 299 287 285 274 264 261 261 271 266 265 275 261 264 266 253 246 243 242 244 245 245 245 246 249 252 250 251 250 245 242 237
287 295 308 312 313 314 311 311 310 312 311 307 306 302 291 277 273 264 254 249 252 261 271 259 261 258 258 244 240 236 240 244 246 247 247 249 250 248 250 251 247 244 242
292 307 335 298 319 317 314 311 314 311 308 307 305 301 304 289 278 275 266 246 253 269 285 276 255 260 262 249 242 239 239 241 244 248 249 252 255 251 252 255 251 246 244
339 312 315 323 318 323 319 313 307 317 314 316 311 305 305 304 289 282 284 274 270 262 294 295 250 252 261 267 254 244 241 241 243 244 240 246 253 259 248 251 256 251 246
300 324 329 338 303 321 322 308 317 320 318 320 317 314 312 306 303 294 286 296 298 286 269 290 235 245 259 259 262 262 249 240 238 241 237 240 247 255 247 250 256 256 249
307 324 321 325 324 338 324 318 322 321 322 326 323 318 315 303 310 302 309 300 311 273 226 273 348 278 260 258 254 253 265 248 236 234 236 238 244 248 243 256 259 253 251
315 330 336 334 331 337 320 329 323 328 327 328 322 316 313 307 307 308 290 305 305 248 212 304 301 279 260 256 254 248 249 250 237 232 233 235 241 243 247 259 255 248 249
326 315 342 333 327 340 330 329 329 329 333 323 321 321 323 323 319 298 299 309 305 316 248 261 260 267 270 257 255 256 254 256 243 231 227 227 233 237 249 255 247 250 248
307 298 325 326 329 329 327 338 334 334 332 324 319 323 321 324 317 309 307 305 317 310 290 271 259 259 254 267 262 256 253 256 245 227 219 223 225 228 234 239 243 249 242
298 293 319 323 326 319 329 331 335 337 327 324 324 325 322 320 308 304 314 307 306 300 307 292 278 258 278 261 271 258 270 264 233 216 207 214 216 225 230 234 239 240 242
314 313 314 322 320 320 321 323 344 327 323 319 321 316 321 316 313 309 304 305 319 317 276 284 310 294 276 283 279 253 266 265 218 200 206 212 216 228 241 233 225 233 239
317 301 315 317 318 316 314 315 322 325 322 322 322 312 306 309 307 297 292 298 294 307 314 331 331 335 322 310 269 251 258 255 226 211 212 214 234 239 231 235 228 233 239
318 322 318 314 314 315 314 308 311 311 307 318 308 303 304 301 295 297 296 288 288 284 294 303 304 307 305 300 283 238 238 259 238 225 220 223 233 233 232 237 231 232 245
315 318 315 310 311 311 309 308 310 314 304 305 302 295 294 296 296 285 286 287 287 281 286 290 293 297 286 286 283 254 233 249 249 246 233 233 232 231 229 239 236 239 242
308 312 315 306 303 306 305 307 307 306 306 304 301 300 295 291 285 274 277 276 279 278 281 287 287 283 285 280 274 251 227 246 244 258 255 241 233 231 233 239 241 240 246
301 303 306 305 299 299 302 305 303 307 305 300 297 297 293 284 282 277 267 265 267 276 274 275 278 280 278 270 277 247 236 230 227 247 254 250 239 236 235 237 241 244 245
294 294 297 303 299 298 297 301 298 306 305 297 290 287 286 290 280 284 280 274 268 265 275 273 271 278 269 261 255 253 232 219 218 236 236 248 245 237 235 236 238 244 246
292 292 293 296 300 299 300 284 297 307 305 300 289 280 283 280 281 280 282 279 272 270 266 273 281 282 268 259 261 251 239 240 224 218 228 237 245 248 240 235 235 235 234
285 287 288 291 293 298 293 291 299 305 311 301 288 283 270 276 283 282 282 295 285 268 275 279 277 277 274 273 269 259 247 238 240 231 221 231 234 229 213 224 227 234 233
280 281 283 287 291 289 292 298 307 307 310 297 270 275 279 274 272 268 276 285 299 285 282 280 276 277 281 277 272 260 256 256 255 253 227 225 206 217 212 221 229 236 236
280 279 282 281 283 289 290 297 311 310 314 303 280 280 282 282 273 280 271 279 278 283 281 283 282 286 278 273 255 248 258 255 257 257 240 222 230 236 244 249 247 246 244
282 279 277 278 278 281 284 289 304 307 306 289 285 275 293 298 285 285 288 285 282 265 267 275 272 283 286 275 257 251 260 249 240 240 211 230 243 236 253 249 238 244 239
286 283 278 275 276 279 280 292 299 298 299 291 280 279 268 282 291 292 281 284 281 287 267 260 284 287 299 294 272 252 236 240 231 232 225 216 224 230 215 257 234 227 220
Wind_Speed_850mb
14 17 20 20 26 28 34 30 34 43 39 39 44 44 42 41 40 41 41 48 47 48 46 39 38 33 33 36 39 40 39 39 40 39 39 40 40 41 42 44 47 51 52
22 21 25 34 31 36 45 30 44 49 52 51 54 50 51 47 42 43 40 42 51 50 50 46 42 42 44 43 43 43 42 42 42 42 42 43 44 46 47 51 53 53 54
28 35 38 42 44 38 39 42 43 41 43 50 50 51 51 49 53 45 44 43 44 48 42 41 50 50 49 47 44 46 45 39 38 38 40 41 42 42 45 50 56 58 57
37 38 37 35 26 29 34 40 44 41 54 46 51 49 50 55 56 50 54 53 49 43 33 33 38 52 60 53 52 49 48 44 43 39 37 37 37 36 34 40 49 56 60
25 28 24 19 25 29 33 37 38 42 46 50 52 53 51 49 45 50 65 53 46 39 45 46 45 55 62 61 56 52 50 46 45 44 39 36 38 38 34 33 39 48 54
19 20 12 17 22 24 30 34 42 38 46 51 56 57 58 59 58 62 77 62 56 58 28 30 40 50 52 63 64 60 55 50 46 44 46 38 36 39 36 31 33 40 47
6 10 9 15 19 26 31 30 31 43 44 46 52 60 57 59 68 55 59 74 76 83 54 49 44 38 36 38 46 65 67 62 53 48 46 40 36 35 37 34 30 34 41
4 5 11 17 29 24 27 29 37 38 41 42 51 60 61 56 49 39 37 44 49 55 79 81 25 27 32 27 35 37 50 68 62 53 44 43 38 35 38 34 34 34 36
2 7 19 20 23 21 24 31 30 33 42 43 43 39 43 43 54 49 38 35 37 26 41 46 12 22 29 30 34 37 42 49 62 61 53 44 40 36 34 33 35 36 34
7 8 12 16 20 22 22 24 29 32 37 41 42 37 40 44 41 34 27 37 32 33 32 26 19 27 28 32 33 38 35 33 41 58 60 51 44 39 36 34 32 33 32
9 9 15 18 18 16 21 25 28 31 32 36 38 41 40 35 37 34 38 28 31 23 21 28 30 25 25 25 29 29 38 46 53 49 57 54 47 39 31 33 33 30 32
13 13 17 19 18 19 21 23 27 26 31 33 35 35 35 31 35 30 32 37 32 25 18 15 17 24 18 25 28 30 37 36 37 48 57 52 44 34 29 29 32 30 30
11 20 22 22 18 22 21 24 27 24 29 32 31 28 27 24 33 29 29 33 28 34 12 10 13 12 14 23 25 25 31 31 27 37 50 49 40 37 32 27 24 28 31
12 22 18 20 20 23 23 23 21 26 23 29 29 24 20 22 23 28 28 25 31 25 17 18 10 14 12 24 12 19 26 24 28 38 45 42 41 33 29 31 24 22 21
15 18 19 19 19 22 24 26 24 30 25 27 27 25 23 22 23 24 25 24 27 31 24 17 13 15 11 19 24 18 16 22 27 40 45 43 40 36 34 32 29 22 19
16 18 21 21 20 22 24 27 26 26 32 28 24 25 24 24 21 22 27 29 26 26 21 21 20 21 26 18 24 18 14 26 28 42 49 42 43 47 42 37 36 30 28
20 20 21 22 23 23 24 28 33 31 29 36 33 29 29 27 24 25 28 23 27 25 27 25 20 23 31 24 22 21 19 20 22 22 39 43 44 40 49 45 37 36 38
22 23 25 24 25 26 26 28 31 31 32 36 38 36 36 24 28 26 24 29 33 31 31 37 31 30 29 22 25 19 19 19 19 24 26 36 43 44 45 42 39 37 39
24 25 27 27 27 28 29 30 31 30 36 37 38 35 35 31 31 27 29 27 29 32 34 37 34 28 26 26 26 20 19 21 18 27 28 26 31 39 41 42 41 40 40
27 29 29 30 31 31 30 30 27 37 38 37 37 35 35 27 32 29 30 33 34 34 32 29 33 30 23 22 28 20 20 22 23 28 24 22 24 28 34 38 39 40 40
29 31 32 32 33 33 31 32 38 39 40 40 35 32 32 32 29 23 24 24 27 26 25 30 31 26 29 27 27 23 23 24 26 29 28 31 32 35 32 34 35 36 37
29 31 33 34 35 34 38 48 43 47 47 40 31 27 32 34 27 28 24 24 25 28 27 26 32 35 34 30 31 26 24 22 22 26 33 35 31 30 30 30 36 44 41
34 34 33 33 35 37 40 47 46 47 52 39 27 32 35 29 36 31 32 27 28 28 31 32 36 33 34 29 24 20 19 23 22 24 26 33 27 31 31 36 44 42 42
43 44 38 35 36 37 41 46 42 45 45 29 28 37 31 28 25 31 25 28 33 35 40 37 32 30 31 31 29 26 29 25 25 27 23 29 37 37 42 47 46 50 56
49 50 43 41 40 40 40 45 41 39 32 32 31 32 24 25 32 35 36 35 33 32 34 38 29 23 22 23 24 20 19 16 19 18 18 14 24 26 26 25 30 35 36
43 40 42 46 44 44 42 42 37 29 29 29 30 29 33 25 30 34 32 28 25 22 21 22 23 20 17 17 17 25 24 28 26 24 25 21 20 16 10 15 17 21 18
Wind_Direction_850mb
272 280 274 282 288 291 297 295 292 296 295 295 289 289 278 277 278 273 272 284 285 288 284 266 251 240 239 230 225 225 228 231 235 238 238 242 246 250 248 245 243 239 236
247 263 280 287 287 298 288 303 297 292 286 287 287 285 282 277 274 271 270 266 283 278 275 268 255 251 244 243 242 238 237 239 242 245 248 251 252 253 252 248 243 241 239
272 281 288 293 285 295 300 304 302 291 290 286 278 284 274 267 262 267 270 270 270 275 270 271 261 253 248 242 244 247 245 242 242 244 249 254 254 253 253 248 243 238 238
275 286 291 301 294 291 301 306 306 305 304 303 299 287 285 274 264 261 261 271 266 265 275 261 264 266 253 246 243 242 244 245 245 245 246 249 252 250 251 250 245 242 237
287 295 308 312 313 314 311 311 310 312 311 307 306 302 291 277 273 264 254 249 252 261 271 259 261 258 258 244 240 236 240 244 246 247 247 249 250 248 250 251 247 244 242
292 307 335 298 319 317 314 311 314 311 308 307 305 301 304 289 278 275 266 246 253 269 285 276 255 260 262 249 242 239 239 241 244 248 249 252 255 251 252 255 251 246 244
339 312 315 323 318 323 319 313 307 317 314 316 311 305 305 304 289 282 284 274 270 262 294 295 250 252 261 267 254 244 241 241 243 244 240 246 253 259 248 251 256 251 246
300 324 329 338 303 321 322 308 317 320 318 320 317 314 312 306 303 294 286 296 298 286 269 290 235 245 259 259 262 262 249 240 238 241 237 240 247 255 247 250 256 256 249
307 324 321 325 324 338 324 318 322 321 322 326 323 318 315 303 310 302 309 300 311 273 226 273 348 278 260 258 254 253 265 248 236 234 236 238 244 248 243 256 259 253 251
315 330 336 334 331 337 320 329 323 328 327 328 322 316 313 307 307 308 290 305 305 248 212 304 301 279 260 256 254 248 249 250 237 232 233 235 241 243 247 259 255 248 249
326 315 342 333 327 340 330 329 329 329 333 323 321 321 323 323 319 298 299 309 305 316 248 261 260 267 270 257 255 256 254 256 243 231 227 227 233 237 249 255 247 250 248
307 298 325 326 329 329 327 338 334 334 332 324 319 323 321 324 317 309 307 305 317 310 290 271 259 259 254 267 262 256 253 256 245 227 219 223 225 228 234 239 243 249 242
298 293 319 323 326 319 329 331 335 337 327 324 324 325 322 320 308 304 314 307 306 300 307 292 278 258 278 261 271 258 270 264 233 216 207 214 216 225 230 234 239 240 242
314 313 314 322 320 320 321 323 344 327 323 319 321 316 321 316 313 309 304 305 319 317 276 284 310 294 276 283 279 253 266 265 218 200 206 212 216 228 241 233 225 233 239
317 301 315 317 318 316 314 315 322 325 322 322 322 312 306 309 307 297 292 298 294 307 314 331 331 335 322 310 269 251 258 255 226 211 212 214 234 239 231 235 228 233 239
318 322 318 314 314 315 314 308 311 311 307 318 308 303 304 301 295 297 296 288 288 284 294 303 304 307 305 300 283 238 238 259 238 225 220 223 233 233 232 237 231 232 245
315 318 315 310 311 311 309 308 310 314 304 305 302 295 294 296 296 285 286 287 287 281 286 290 293 297 286 286 283 254 233 249 249 246 233 233 232 231 229 239 236 239 242
308 312 315 306 303 306 305 307 307 306 306 304 301 300 295 291 285 274 277 276 279 278 281 287 287 283 285 280 274 251 227 246 244 258 255 241 233 231 233 239 241 240 246
301 303 306 305 299 299 302 305 303 307 305 300 297 297 293 284 282 277 267 265 267 276 274 275 278 280 278 270 277 247 236 230 227 247 254 250 239 236 235 237 241 244 245
294 294 297 303 299 298 297 301 298 306 305 297 290 287 286 290 280 284 280 274 268 265 275 273 271 278 269 261 255 253 232 219 218 236 236 248 245 237 235 236 238 244 246
292 292 293 296 300 299 300 284 297 307 305 300 289 280 283 280 281 280 282 279 272 270 266 273 281 282 268 259 261 251 239 240 224 218 228 237 245 248 240 235 235 235 234
285 287 288 291 293 298 293 291 299 305 311 301 288 283 270 276 283 282 282 295 285 268 275 279 277 277 274 273 269 259 247 238 240 231 221 231 234 229 213 224 227 234 233
280 281 283 287 291 289 292 298 307 307 310 297 270 275 279 274 272 268 276 285 299 285 282 280 276 277 281 277 272 260 256 256 255 253 227 225 206 217 212 221 229 236 236
280 279 282 281 283 289 290 297 311 310 314 303 280 280 282 282 273 280 271 279 278 283 281 283 282 286 278 273 255 248 258 255 257 257 240 222 230 236 244 249 247 246 244
282 279 277 278 278 281 284 289 304 307 306 289 285 275 293 298 285 285 288 285 282 265 267 275 272 283 286 275 257 251 260 249 240 240 211 230 243 236 253 249 238 244 239
286 283 278 275 276 279 280 292 299 298 299 291 280 279 268 282 291 292 281 284 281 287 267 260 284 287 299 294 272 252 236 240 231 232 225 216 224 230 215 257 234 227 220